Location: ????????
(38.4362°N, 22.8767°E)
Time: 19:18:38
(UTC+00:00)

MSX - Pass Details

Date: 23 April 2024
Orbit: 894 x 906 km, 99.0° (Epoch: 27 May)

Event Time Altitude Azimuth Distance (km) Brightness Sun altitude
Rises 00:48:19 0° 8° (N) 3,534 7.8 -29.2°
Reaches altitude 10° 00:50:47 10° 4° (N) 2,588 6.8 -28.8°
Enters shadow 00:55:56 52° 306° (NW) 1,108 4.2 -28.2°
